Location: Palm Bay
(27.9400°N, 80.7200°W)
Time: 11:18:29
(UTC-04:00)

Daily predictions for brighter satellites

Satellite Brightness Start Highest point End
(mag) Time Altitude Azimuth Time Altitude Azimuth Time Altitude Azimuth
Cosmos 1315 Rocket 3.3 19:00:01 10° N 19:03:55 41° E 19:07:49 10° SSE
Cosmos 1908 3.2 19:04:06 10° S 19:08:01 87° E 19:11:55 10° N
SPOT 3 Rocket 4.4 19:04:20 10° SE 19:08:45 29° ENE 19:13:11 10° NNE
Cosmos 1452 Rocket 3.5 19:04:05 10° N 19:09:19 67° ENE 19:14:32 10° SSE
Cosmos 2221 2.5 19:05:56 10° S 19:10:12 69° E 19:14:31 10° NNE
Cosmos 1821 Rocket 4.2 19:07:52 10° SSE 19:13:41 47° E 19:19:37 10° NNE
Sakura Rocket 4.1 19:09:58 10° SW 19:13:51 28° SSE 19:17:08 10° E
Cosmos 1703 3.5 19:12:02 10° N 19:15:55 75° W 19:19:47 10° S
Delta 2 Rocket 4.2 19:13:04 10° NW 19:16:42 31° N 19:19:54 11° ENE
Cosmos 2237 Rocket 4.0 19:16:01 10° NE 19:16:46 10° ENE 19:17:31 10° ENE
Cosmos 2227 Rocket 2.9 19:12:09 10° SSE 19:17:05 32° ESE 19:22:01 10° NE
Cosmos 2237 4.3 19:11:38 10° N 19:17:17 59° ENE 19:22:52 10° SSE
ATLAS 3B CENTAUR R/B 4.2 19:16:43 10° SW 19:19:08 15° S 19:22:48 10° SSE
Cosmos 921 Rocket 2.9 19:16:39 10° N 19:21:03 79° ENE 19:25:19 10° SSE
IUS-13 SRM-1 3.4 19:21:52 10° S 19:22:12 10° SSE 19:22:32 10° SSE
Cosmos 2098 Rocket 3.3 19:19:10 10° S 19:23:25 61° E 19:28:52 10° NNE
Skynet4D Del rocket 4.2 19:18:30 10° W 19:24:40 74° S 19:31:43 10° ESE
SKYMED 2 3.7 19:24:24 10° N 19:28:44 80° WNW 19:33:03 10° SSW
Cosmos 1300 3.1 19:25:51 10° SSE 19:29:25 39° E 19:33:00 10° NNE
ALOS 2.7 19:32:07 10° SE 19:36:25 38° ENE 19:40:42 10° N
Cosmos 2360 Rocket 3.1 19:30:56 10° NNW 19:36:27 54° WSW 19:41:57 10° S
BREEZE-M DEB (TANK) 1.6 19:35:10 10° NNW 19:37:03 38° NE 19:38:24 20° ESE
RESURS DK-1 4.0 19:33:33 10° NW 19:37:23 37° WSW 19:41:10 10° S
Atlas Centaur 2 2.1 19:34:07 10° W 19:38:11 55° SSW 19:42:58 11° ESE
FENGYUN 3A 4.0 19:33:42 10° SE 19:38:44 41° ENE 19:43:46 10° N
Meteor 2-10 3.9 19:35:26 10° S 19:40:21 59° E 19:45:21 10° NNE
SWAS 4.4 19:40:38 10° SSW 19:44:52 88° ESE 19:49:10 10° NNE
Cosmos 2251 Rocket 3.7 19:41:31 10° S 19:46:32 47° ESE 19:51:37 10° NNE
Cosmos 1605 Rocket 4.2 19:42:33 10° SSE 19:48:18 44° E 19:54:02 10° NNE
ERS-2 4.1 19:46:07 10° SSW 19:49:27 32° W 19:52:48 10° NW
Cosmos 1420 Rocket 4.4 19:44:28 10° NNW 19:49:43 66° WSW 19:54:54 10° S
Cosmos 2123 Rocket 4.3 19:46:56 10° N 19:52:50 43° E 19:58:46 10° SSE
Cosmos 2297 Rocket 2.2 19:48:29 10° S 19:54:00 59° ESE 19:59:34 10° NNE
COSMOS 2428 2.6 19:48:29 10° NNW 19:54:11 84° ENE 19:59:53 10° SSE
Cosmos 1726 3.3 19:51:16 10° SSW 19:54:48 44° W 19:58:20 10° N
Cosmos 2333 Rocket 2.6 19:51:32 10° N 19:56:57 41° ENE 20:01:22 15° SE
Hubble Space Telescope 0.7 19:54:49 10° W 19:58:58 88° SSE 20:00:30 37° E
NOSS 0 Rocket 4.3 19:53:25 10° N 19:59:07 39° ENE 20:02:41 21° ESE
BREEZE-M DEB (TANK) 3.4 19:57:54 10° SSW 19:59:42 30° SSE 19:59:42 30° SSE
DELTA 2 R/B (1) 3.5 19:55:35 10° WNW 20:01:11 80° NNE 20:04:19 27° ESE
NOAA 12 4.0 19:57:01 10° SSE 20:02:18 82° ENE 20:07:38 10° N
Cosmos 2082 3.6 19:59:44 10° SSW 20:05:26 75° ESE 20:11:09 10° NNE
USA 267 3.6 20:04:43 26° ENE 20:07:56 44° SE 20:14:05 10° SSW
Sich 1 2.9 20:04:20 10° N 20:08:44 73° E 20:13:09 10° S
ASTRO E2 3.4 20:06:42 10° W 20:10:34 48° SSW 20:11:53 33° SSE
Meteosat 1 Rocket2 4.5 20:04:35 10° SW 20:12:37 47° SSE 20:14:51 33° ESE
Thor Agena Rocket 3.6 20:10:04 10° N 20:15:07 76° WNW 20:20:08 10° SSW
IUS-17 SRM-1 3.3 20:13:48 10° W 20:15:34 31° SW 20:15:34 31° SW
Cosmos 1331 Rocket 4.1 20:11:06 10° N 20:16:06 46° ENE 20:16:38 45° E
Fermi 4.2 20:14:05 10° W 20:18:06 51° S 20:18:44 46° SSE
Cosmos 2219 Rocket 2.1 20:16:52 10° NNW 20:22:29 89° ENE 20:28:07 10° SSE
FengYun 1-2 T 4.1 20:18:04 10° SSE 20:23:30 64° ENE 20:28:55 10° N
Cosmos 2228 Rocket 3.1 20:25:47 10° S 20:30:18 82° W 20:34:23 13° N
Cosmos 1328 Rocket 4.1 20:27:47 10° SSW 20:32:07 59° W 20:36:27 10° N
Aureole 2 Rocket 4.2 20:29:27 10° NNW 20:33:14 39° WSW 20:37:02 10° S
Cosmos 1666 Rocket 4.4 20:32:31 10° NNW 20:36:40 48° W 20:40:49 10° SSW
Delta 198 4.4 20:35:11 10° W 20:37:52 34° SW 20:37:52 34° SW
Cosmos 1633 Rocket 3.7 20:36:07 10° NNW 20:40:27 56° W 20:44:46 10° S
Meteor 1-27 4.2 20:38:55 10° S 20:44:35 81° W 20:50:23 10° N
Atlas 2A Centaur Rocket 3.7 20:41:18 10° WSW 20:53:43 39° S 20:53:45 39° S
Cosmos 2227 Rocket 4.2 20:56:27 10° WSW 21:01:02 25° WNW 21:05:39 10° N
Cosmos 2237 Rocket 2.5 20:55:41 10° NNW 21:00:17 59° NNW 21:00:17 59° NNW
Atlas Centaur 2 4.2 21:23:32 10° WSW 21:25:37 17° SW 21:25:37 17° SW
USA 267 4.5 21:52:07 36° WNW 21:52:07 36° WNW 21:56:44 10° WSW
